#timestamp,LO_Frequency,Hit,StdDev 
1629673215.6,286047002.5,N
1629673235.4,286046999.9,N
1629673255.2,286047000.1,N
1629673275.1,286047002.5,N
1629673276.0,286047002.5,N
1629673295.8,286047001.3,N
1629673315.7,286047004.3,N
1629673335.5,286046999.9,N
1629673355.3,286047002.2,N
1629673375.2,286047002.7,N
1629673395.0,286047000.7,N
1629673395.9,286047000.7,N
1629673415.7,286046998.6,N
1629673435.6,286046999.2,N
1629673455.4,286047001.0,N
1629673475.3,286047000.3,N
1629673495.1,286047000.0,N
1629673496.0,286047000.0,N
1629673515.8,286047002.7,N
1629673535.7,286046999.8,N
1629673555.5,286047001.6,N
1629673575.3,286047003.5,N
1629673595.2,286047004.4,Y
1629673615.0,286047002.0,P
1629673615.9,286047002.0,P
1629673635.8,286047000.2,N
1629673655.6,286047000.0,N
1629673675.4,286046999.7,N
1629673695.3,286047011.9,Y
1629673715.1,286047002.3,P
1629673735.9,286047000.1,N
1629673755.7,286047001.6,N
1629673775.5,286047000.0,N
1629673795.4,286046998.6,N
1629673815.2,286046999.3,N
1629673835.0,286046998.5,N
1629673835.9,286046998.5,N
1629673855.8,286047001.0,N
1629673875.6,286047002.5,N
1629673895.4,286047002.7,N
1629673915.3,286047001.9,N
1629673935.1,286047002.0,N
1629673955.9,286046999.9,N
1629673975.7,286047000.7,N
1629673995.5,286047000.7,N
1629674015.4,286047000.6,N
1629674035.2,286046999.7,N
1629674055.0,286047002.3,N
1629674055.9,286047002.3,N
1629674075.8,286047002.6,N
1629674095.6,286047002.7,N
1629674115.5,286047001.9,N
1629674135.3,286047001.9,N
1629674155.1,286047002.0,N
1629674175.9,286047003.9,N
1629674225.7,286047004.0,E
1629674235.7,286047000.4,N
1629674255.5,286046999.5,P
1629674275.3,286046997.5,P
1629674295.2,286046997.5,N
1629674315.0,286046996.6,N
1629674315.9,286046996.6,N
1629674335.8,286046995.0,Y
1629674355.6,286046998.6,P
1629674375.4,286046998.2,P
1629674395.3,286046999.1,P
1629674415.1,286046996.9,Y
1629674435.8,286046997.4,P
1629674455.2,286046999.4,N
1629674475.1,286046999.1,N
1629674476.0,286046999.1,N
1629674495.8,286046998.5,N
1629674515.6,286046998.2,N
1629674535.5,286046998.2,N
1629674555.3,286046998.2,Y
1629674575.1,286046999.7,P
1629674595.9,286047000.5,N
1629674615.7,286047001.1,N
1629674635.5,286047000.6,N
1629674655.3,286047000.0,N
1629674675.1,286047000.7,N
1629674695.9,286046998.6,N
1629674715.7,286047000.5,N
1629674735.6,286046999.9,N
1629674755.4,286047002.8,Y
1629674775.2,286046999.8,P
1629674795.1,286047000.5,P
1629674796.0,286047000.5,N
1629674815.8,286047002.7,Y
1629674835.6,286047000.4,P
1629674855.5,286047000.8,P
1629674875.3,286046998.2,P
1629674895.2,286046998.6,N
1629674915.9,286046998.9,N
1629674935.7,286046999.4,N
1629674955.6,286047001.1,N
1629674975.4,286046999.8,N
1629674995.2,286047002.2,N
1629675015.1,286047001.4,N
1629675016.0,286047001.4,N
1629675035.8,286047002.1,N
1629675055.7,286047000.1,N
1629675075.5,286047000.3,N
1629675095.3,286047001.0,N
1629675115.2,286047002.5,N
1629675135.0,286047000.6,N
1629675135.9,286047000.6,N
1629675155.7,286047002.4,N
1629675175.6,286047000.5,N
1629675195.4,286047001.2,N
1629675215.3,286046999.2,N
1629675235.1,286046997.0,N
1629675236.0,286046997.0,N
1629675255.8,286046996.7,N
1629675275.7,286046996.9,N
1629675295.5,286046997.8,N
1629675315.4,286046995.3,N
1629675335.2,286046996.0,N
1629675355.0,286046994.0,Y
1629675355.9,286046994.0,P
1629675375.8,286046993.7,N
1629675395.6,286046993.3,N
1629675415.5,286046995.5,N
1629675435.3,286046995.0,N
1629675455.1,286046997.3,N
1629675475.9,286046997.3,N
1629675495.7,286046997.5,N
1629675515.6,286046997.4,N
1629675535.4,286046995.4,N
1629675555.2,286046995.3,N
1629675575.1,286046997.7,N
1629675576.0,286046997.7,N
1629675595.8,286046997.8,N
1629675615.6,286046996.9,N
1629675635.5,286046997.6,N
1629675655.3,286046997.7,N
1629675675.2,286046999.1,N
1629675695.0,286046999.2,N
1629675695.9,286046999.2,N
1629675715.8,286046999.3,N
1629675735.6,286046996.8,N
1629675755.4,286046996.6,N
1629675775.3,286046998.8,N
1629675795.1,286046999.3,N
1629675815.8,286046998.8,N
1629675835.7,286046998.4,N
1629675855.5,286046998.6,N
1629675875.3,286046998.2,N
1629675895.2,286047001.2,N
1629675915.0,286046998.8,N
1629675915.9,286046998.8,N
1629675935.8,286046999.0,N
1629675955.6,286046999.0,N
1629675975.4,286046998.5,N
1629675995.3,286046998.1,N
1629676015.1,286047001.2,N
1629676035.9,286046998.4,N
1629676055.7,286046998.7,N
1629676075.5,286046998.7,N
1629676095.4,286047001.1,N
1629676115.2,286047000.3,N
1629676135.0,286047000.5,N
1629676135.9,286047000.5,N
1629676155.8,286047000.7,N
1629676175.6,286047000.8,N
1629676195.5,286047001.0,N
1629676215.0,286047000.6,N
1629676215.9,286047000.6,N
1629676235.8,286047000.6,N
1629676255.6,286047000.6,N
1629676275.4,286047000.3,N
1629676295.3,286047002.8,N
1629676315.1,286047002.5,N
1629676335.8,286047002.7,N
1629676355.7,286047000.6,N
1629676375.5,286047000.5,N
1629676395.4,286047000.3,N
1629676415.2,286047000.1,N
1629676435.0,286047002.3,N
1629676435.9,286047002.3,N
1629676455.8,286047002.2,N
1629676475.6,286047002.4,N
1629676495.5,286047000.2,N
1629676515.3,286047000.0,N
1629676535.1,286047002.5,N
1629676555.9,286047002.5,N
1629676575.7,286047002.7,N
1629676595.5,286047000.4,N
1629676615.4,286046999.9,N
1629676635.2,286047000.2,N
1629676655.1,286047000.1,N
1629676656.0,286047000.1,N
1629676675.8,286047000.3,N
1629676695.6,286047001.0,N
1629676715.5,286047001.0,N
1629676735.3,286046998.7,N
1629676755.2,286047000.6,N
1629676775.9,286047000.3,N
1629676795.7,286047000.6,N
